Regional Weather Roundup
Issued by NWS

Home | Current Version | Previous Version | Text Only | Print | Product List | Glossary Off
Versions: 1 2 3 4 5 6 7 8 9 10 11 12 13 14 15 16 17 18 19 20 21 22 23 24 25 26 27 28 29 30 31 32 33 34 35 36 37 38 39 40 41 42 43 44 45 46 47 48 49 50

000
ASUS43 KIND 261309
RWRIN

WEATHER ROUNDUP FOR INDIANA
NATIONAL WEATHER SERVICE INDIANAPOLIS IN
800 AM EST THU FEB 26 2015

NOTE: "FAIR" INDICATES FEW OR NO CLOUDS BELOW 12,000 FEET WITH NO
SIGNIFICANT WEATHER AND/OR OBSTRUCTIONS TO VISIBILITY.

* - STATION DOES NOT REPORT WEATHER SUCH AS PRECIPITATION OR FOG.

+ - STATION NOT QUALITY CONTROLLED BY THE NATIONAL WEATHER SERVICE.
    USE DATA WITH CAUTION...ESPECIALLY DEWPOINT AND RELATIVE
    HUMIDITY OBSERVATIONS.

INZ001>003-010>013-019-020-261400-
NORTHWEST INDIANA

CITY           SKY/WX    TMP DP  RH WIND       PRES   REMARKS
GARY /AIRPORT/ LGT SNOW  19  10  68 E12G23    30.13R WCI   7
KNOX *+          N/A     16   5  62 N9        30.10R WCI   4
LA PORTE +     LGT SNOW  15  11  83 N13       30.11R WCI   1
MICHIGAN CITY+ LGT SNOW  14   9  79 NE8       30.14R WCI   3
MONTICELLO +   LGT SNOW  16  13  89 NE6       30.07R WCI   7
RENSSELAER +   LGT SNOW  18  18 100 N8        30.10R WCI   7
VALPARAISO     LGT SNOW  14   9  80 NE8       30.11R WCI   3

$$

LMZ046-743>745-261400-
SOUTHERN LAKE MICHIGAN

STATION/POSITION TIME  TEMP WIND        PRES
                       AIR  DIR/SP/G
                 (UTC) (F)  (DEG/KT/KT) (MB)
MICHIGAN CITY    1300   13   10/ 14/ 17   N/A

$$

INZ004-005-014>016-021>024-261400-
NORTH CENTRAL INDIANA

CITY           SKY/WX    TMP DP  RH WIND       PRES   REMARKS
ELKHART        LGT SNOW  12   7  79 N8        30.12R WCI   1
GOSHEN         LGT SNOW  13   8  81 NE8       30.09R VSB 1   WCI   2
LOGANSPORT +   LGT SNOW  16  14  93 NE6       30.09R WCI   7
PERU/GRISSOM   LGT SNOW  14  10  85 NE8       30.06R FOG     WCI   3
ROCHESTER +    LGT SNOW  18  14  86 NE6       30.09R WCI   9
SOUTH BEND     LGT SNOW  13   7  77 N10       30.11R WCI   0
WARSAW +       LGT SNOW  14   9  79 NE6       30.09R WCI   5

$$

INZ006>009-017-018-025>027-261400-
NORTHEAST INDIANA

CITY           SKY/WX    TMP DP  RH WIND       PRES   REMARKS
ANGOLA *+      CLOUDY     9   5  85 E7        30.07R WCI  -3
FORT WAYNE     LGT SNOW  12   7  80 NE8       30.08R WCI   0
HUNTINGTON +   LGT SNOW  12   5  74 NE8       30.07R WCI   0

$$

INZ028-029-035-036-043>045-051>053-261400-
WEST CENTRAL INDIANA

CITY           SKY/WX    TMP DP  RH WIND       PRES   REMARKS
CRAWFORDSVL +  LGT SNOW  16  11  78 NE12      30.04R WCI   3
GREENCASTLE +  LGT SNOW  19  12  73 N12       30.03R WCI   7
LAFAYETTE      LGT SNOW  17  13  84 N9        30.08R VSB 3/4 WCI   6
TERRE HAUTE    LGT SNOW  20  16  84 N13       30.05R FOG     WCI   7

$$

INZ030>032-037>040-046>048-054>057-064-065-261400-
CENTRAL INDIANA

CITY           SKY/WX    TMP DP  RH WIND       PRES   REMARKS
CP ATTERBURY + LGT SNOW  19  16  86 N9        30.01R WCI   9
COLUMBUS       LGT SNOW  18  14  86 N12       30.01R FOG     WCI   5
FRANKFORT +    LGT SNOW  17  14  88 N9        30.07R WCI   5
INDIANAPOLIS   LGT SNOW  17  12  80 NE15      30.00R WCI   2
-EAGLE CREEK   LGT SNOW  16  11  80 NE7       30.02R WCI   6
KOKOMO *+      MOCLDY    14   9  79 E13       30.07R WCI   0
MARION +       LGT SNOW  13   8  80 NE10      30.06R WCI   0
MT COMFORT *+  CLOUDY    16   7  67 NE15      30.01R WCI   1
SHELBYVILLE    LGT SNOW  19  12  74 N12       30.00R WCI   7
ZIONSVILLE +   LGT SNOW  16  10  79 NE14      30.02R WCI   1

$$

INZ033-034-041-042-049-050-058-059-261400-
EAST CENTRAL INDIANA

CITY           SKY/WX    TMP DP  RH WIND       PRES   REMARKS
MUNCIE         LGT SNOW  13   8  81 NE12      30.02R VSB 1   WCI  -1

$$

INZ060-061-067>069-081>083-085>088-261400-
SOUTHWEST INDIANA

CITY           SKY/WX    TMP DP  RH WIND       PRES   REMARKS
EVANSVILLE     CLOUDY    28  18  66 N9        30.00R WCI  19
HUNTINGBURG *+ CLEAR     25  16  68 NE9       29.98R WCI  15
WASHINGTON +   CLOUDY    23  14  67 N8        30.00R WCI  14

$$

INZ062-063-066-070>080-084-089>092-261400-
SOUTH CENTRAL AND SOUTHEAST INDIANA

CITY           SKY/WX    TMP DP  RH WIND       PRES   REMARKS
BLOOMINGTON    LGT SNOW  20  16  84 N9        30.00R FOG     WCI   9
NORTH VERNON + CLOUDY    21  10  63 N7        29.98R WCI  13
SEYMOUR +      CLOUDY    23  12  63 N12       30.00R WCI  12

$$



USA.gov is the U.S. government's official web portal to all federal, state and local government web resources and services.